Lawrenceville, IL

10:08 AM CDT on October 18, 2017 (GMT -0500)
Lawrenceville-Vincennes International

Weather History for KLWV - July, 2013

Change the Weather History Date:

Tuesday, July 30, 2013

  Actual Average Record
Temperature  
Mean Temperature 72 °F 78 °F  
Max Temperature 77 °F 88 °F 100 °F (1999)
Min Temperature 66 °F 67 °F 55 °F (2014)
Degree Days  
Heating Degree Days 0 0  
Month to date heating degree days 1 0  
Since 1 June heating degree days 4 7  
Since 1 July heating degree days 1 0  
Cooling Degree Days 7 12  
Month to date cooling degree days 299 389  
Year to date cooling degree days 723 818  
Since 1 June cooling degree days 555 679  
Growing Degree Days 20 (Base 50)    
Moisture  
Dew Point 65 °F    
Average Humidity 79    
Maximum Humidity 93    
Minimum Humidity 64    
Precipitation  
Precipitation 0.30 in 0.11 in 1.77 in (1998)
Month to date precipitation 4.46 4.31  
Year to date precipitation 39.92 25.85  
Sea Level Pressure  
Sea Level Pressure 30.12 in    
Wind  
Wind Speed 7 mph (SE)    
Max Wind Speed 14 mph    
Max Gust Speed 17 mph    
Visibility 5 miles    
Events Rain    
T = Trace of Precipitation, MM = Missing Value Source: NWS Daily Summary

Daily Weather History Graph

Daily Weather History Graph

Search for Another Location

Airport or City:

Trip Planner

Search our weather history database for the weather conditions in past years. The results will help you decide how hot, cold, wet, or windy it might be!

Date:

Astronomy

Jul. 30, 2013 Rise Set
Actual Time 5:50 AM CDT 8:02 PM CDT
Civil Twilight 5:20 AM CDT 8:32 PM CDT
Nautical Twilight 4:43 AM CDT 9:09 PM CDT
Astronomical Twilight 4:03 AM CDT 9:48 PM CDT
Moon 12:07 AM CDT (7/30) 2:23 PM CDT (7/30)
Length of Visible Light 15h 12m
Length of Day
14h 12m
Last Quarter, 41% of the Moon is Illuminated
Jul 30
Last Quarter
Aug 6
New
Aug 14
First Quarter
Aug 20
Full
Aug 28
Last Quarter

Hourly Weather History & Observations

Time (CDT) Temp. Dew Point Humidity Pressure Visibility Wind Dir Wind Speed Gust Speed Precip Events Conditions
12:53 AM 66.9 °F 63.0 °F 87% 30.16 in 9.0 mi East 3.5 mph - N/A   Scattered Clouds
1:53 AM 68.0 °F 64.0 °F 87% 30.17 in 10.0 mi Calm Calm - 0.00 in Rain Light Rain
2:53 AM 68.0 °F 64.0 °F 87% 30.17 in 9.0 mi Calm Calm - 0.00 in   Clear
3:53 AM 66.9 °F 63.0 °F 87% 30.17 in 9.0 mi ENE 5.8 mph - N/A   Clear
4:53 AM 66.9 °F 63.0 °F 87% 30.17 in 9.0 mi East 3.5 mph - N/A   Clear
5:53 AM 66.0 °F 62.1 °F 87% 30.16 in 8.0 mi ESE 3.5 mph - N/A   Clear
6:53 AM 68.0 °F 63.0 °F 84% 30.17 in 7.0 mi SE 3.5 mph - N/A   Clear
7:53 AM 70.0 °F 62.1 °F 76% 30.17 in 8.0 mi SE 5.8 mph - N/A   Clear
8:53 AM 71.1 °F 63.0 °F 75% 30.17 in 7.0 mi East 5.8 mph - N/A   Scattered Clouds
9:53 AM 72.0 °F 62.1 °F 71% 30.17 in 8.0 mi SSE 6.9 mph - N/A   Mostly Cloudy
10:53 AM 75.9 °F 63.0 °F 64% 30.16 in 9.0 mi SSE 10.4 mph - N/A   Partly Cloudy
11:53 AM 75.9 °F 62.1 °F 62% 30.16 in 9.0 mi South 10.4 mph - N/A   Mostly Cloudy
12:53 PM 73.9 °F 64.0 °F 71% 30.15 in 8.0 mi South 8.1 mph - 0.00 in Rain Light Rain
1:53 PM 70.0 °F 64.0 °F 81% 30.15 in 4.0 mi South 8.1 mph - 0.01 in Rain Light Rain
2:10 PM 69.8 °F 64.4 °F 83% 30.15 in 2.5 mi South 6.9 mph - 0.02 in Rain Rain
2:45 PM 68.0 °F 64.4 °F 88% 30.14 in 2.5 mi South 6.9 mph - 0.09 in Rain Rain
2:53 PM 68.0 °F 64.9 °F 90% 30.14 in 2.0 mi South 5.8 mph - 0.10 in Rain Rain
3:03 PM 68.0 °F 64.4 °F 88% 30.13 in 1.5 mi SE 4.6 mph - 0.03 in Rain Heavy Rain
3:49 PM 68.0 °F 66.2 °F 94% 30.11 in 1.8 mi ESE 10.4 mph - 0.15 in Rain Light Rain
3:51 PM 68.0 °F 66.2 °F 94% 30.11 in 1.8 mi ESE 10.4 mph - 0.15 in Rain Rain
3:53 PM 68.0 °F 66.0 °F 93% 30.11 in 1.8 mi ESE 9.2 mph - 0.15 in Rain Rain
4:01 PM 68.0 °F 66.2 °F 94% 30.11 in 2.5 mi SE 10.4 mph - 0.00 in Rain Light Rain
4:15 PM 68.0 °F 66.2 °F 94% 30.11 in 2.0 mi SE 9.2 mph - 0.02 in Rain Light Rain
4:28 PM 68.0 °F 66.2 °F 94% 30.11 in 1.8 mi SE 8.1 mph - 0.03 in Rain Light Rain
4:37 PM 69.8 °F 66.2 °F 88% 30.11 in 2.5 mi SSE 8.1 mph - 0.04 in Rain Light Rain
4:50 PM 69.8 °F 66.2 °F 88% 30.10 in 3.0 mi SE 9.2 mph - 0.04 in Rain Light Rain
4:53 PM 69.1 °F 66.9 °F 93% 30.10 in 3.0 mi SSE 8.1 mph - 0.04 in Rain Light Rain
5:53 PM 70.0 °F 68.0 °F 93% 30.09 in 4.0 mi SE 11.5 mph - 0.00 in   Overcast
6:06 PM 69.8 °F 66.2 °F 88% 30.09 in 4.0 mi SE 10.4 mph - N/A   Overcast
6:23 PM 69.8 °F 68.0 °F 94% 30.09 in 4.0 mi SSE 9.2 mph - N/A   Overcast
6:53 PM 70.0 °F 66.9 °F 90% 30.07 in 4.0 mi SE 10.4 mph - N/A   Overcast
7:41 PM 69.8 °F 66.2 °F 88% 30.08 in 5.0 mi SSE 12.7 mph - N/A   Overcast
7:53 PM 70.0 °F 66.9 °F 90% 30.07 in 4.0 mi SSE 11.5 mph - N/A   Overcast
8:53 PM 70.0 °F 66.9 °F 90% 30.07 in 6.0 mi SSE 8.1 mph - N/A   Overcast
9:53 PM 69.1 °F 66.0 °F 90% 30.08 in 6.0 mi SE 9.2 mph - N/A   Overcast
10:53 PM 69.1 °F 66.0 °F 90% 30.07 in 5.0 mi SSE 8.1 mph - N/A   Overcast
11:53 PM 69.1 °F 66.0 °F 90% 30.07 in 4.0 mi SSE 9.2 mph - N/A   Overcast